Weather History for Rexburg, ID

Change the Weather History Date:

Sunday, June 8, 2014

  Actual Average Record
Temperature  
Mean Temperature 59 °F 58 °F  
Max Temperature 73 °F 72 °F 85 °F (2001)
Min Temperature 44 °F 44 °F 32 °F (2005)
Degree Days  
Heating Degree Days 6 7  
Month to date heating degree days 39 63  
Since 1 June heating degree days 39 63  
Since 1 July heating degree days 7676 8021  
Cooling Degree Days 0 0  
Month to date cooling degree days 0 0  
Year to date cooling degree days 0 4  
Since 1 June cooling degree days 0 0  
Growing Degree Days 8 (Base 50)    
Moisture  
Dew Point 36 °F    
Average Humidity 53    
Maximum Humidity 89    
Minimum Humidity 17    
Precipitation  
Precipitation 0.01 in 0.06 in 0.47 in (1982)
Month to date precipitation 0.01 0.51  
Year to date precipitation 5.06 6.38  
Sea Level Pressure  
Sea Level Pressure 30.03 in    
Wind  
Wind Speed 6 mph (NE)    
Max Wind Speed 14 mph    
Max Gust Speed 21 mph    
Visibility 10 miles    
Events      
T = Trace of Precipitation, MM = Missing Value Source: NWS Daily Summary

Daily Weather History Graph

Daily Weather History Graph

Search for Another Location

Airport:

Trip Planner

Search our weather history database for the weather conditions in past years. The results will help you decide how hot, cold, wet, or windy it might be!

Date:

Astronomy

Jun. 08, 2014 Rise Set
Actual Time 5:45 AM MDT 9:07 PM MDT
Civil Twilight 5:09 AM MDT 9:43 PM MDT
Nautical Twilight 4:22 AM MDT 10:30 PM MDT
Astronomical Twilight 3:24 AM MDT 11:28 PM MDT
Moon 4:21 PM MDT (6/8) 2:49 AM MDT (6/8)
Length of Visible Light 16h 34m
Length of Day
15h 22m
Waxing Gibbous, 77% of the Moon is Illuminated
Jun 8
Waxing Gibbous
Jun 12
Full
Jun 19
Last Quarter
Jun 27
New
Jul 5
First Quarter

Hourly Weather History & Observations

Time (MDT) Temp. Windchill Dew Point Humidity Pressure Visibility Wind Dir Wind Speed Gust Speed Precip Events Conditions
12:53 AM 51.1 °F - 44.1 °F 77% 29.99 in 10.0 mi North 6.9 mph - 0.00 in   Overcast
1:53 AM 51.1 °F - 45.0 °F 80% 29.98 in 10.0 mi East 6.9 mph - 0.01 in   Overcast
2:53 AM 48.9 °F - 43.0 °F 80% 29.98 in 10.0 mi ENE 6.9 mph - N/A   Clear
3:53 AM 48.0 °F - 42.1 °F 80% 29.99 in 10.0 mi NNE 8.1 mph - N/A   Clear
4:53 AM 46.0 °F 43.9 °F 41.0 °F 83% 30.01 in 10.0 mi NE 4.6 mph - N/A   Clear
5:53 AM 44.1 °F 41.5 °F 41.0 °F 89% 30.03 in 10.0 mi NE 4.6 mph - N/A   Clear
6:53 AM 46.0 °F 44.8 °F 39.9 °F 79% 30.04 in 10.0 mi ENE 3.5 mph - N/A   Clear
7:53 AM 48.0 °F - 41.0 °F 77% 30.06 in 10.0 mi North 4.6 mph - N/A   Clear
8:53 AM 53.1 °F - 42.1 °F 66% 30.07 in 10.0 mi Variable 3.5 mph - N/A   Clear
9:53 AM 59.0 °F - 39.0 °F 48% 30.07 in 10.0 mi NNE 11.5 mph - N/A   Clear
10:53 AM 62.1 °F - 37.9 °F 41% 30.06 in 10.0 mi NE 9.2 mph - N/A   Clear
11:53 AM 64.9 °F - 32.0 °F 29% 30.06 in 10.0 mi NNE 11.5 mph - N/A   Clear
12:53 PM 68.0 °F - 34.0 °F 28% 30.05 in 10.0 mi ENE 10.4 mph 17.3 mph N/A   Partly Cloudy
1:53 PM 68.0 °F - 33.1 °F 27% 30.04 in 10.0 mi Variable 3.5 mph - N/A   Partly Cloudy
2:53 PM 68.0 °F - 32.0 °F 26% 30.04 in 10.0 mi Variable 3.5 mph - N/A   Mostly Cloudy
3:53 PM 70.0 °F - 32.0 °F 25% 30.03 in 10.0 mi Variable 6.9 mph - N/A   Partly Cloudy
4:53 PM 71.1 °F - 30.0 °F 22% 30.01 in 10.0 mi Variable 4.6 mph - N/A   Partly Cloudy
5:53 PM 72.0 °F - 25.0 °F 17% 30.01 in 10.0 mi NNE 9.2 mph - N/A   Partly Cloudy
6:53 PM 72.0 °F - 25.0 °F 17% 30.00 in 10.0 mi NNE 6.9 mph - N/A   Scattered Clouds
7:53 PM 71.1 °F - 28.9 °F 21% 30.00 in 10.0 mi NE 4.6 mph - N/A   Clear
8:53 PM 66.9 °F - 32.0 °F 27% 30.01 in 10.0 mi ENE 3.5 mph - N/A   Clear
9:53 PM 57.9 °F - 37.0 °F 46% 30.03 in 10.0 mi SSW 5.8 mph - N/A   Clear
10:53 PM 55.9 °F - 37.0 °F 49% 30.04 in 10.0 mi South 3.5 mph - N/A   Clear
11:53 PM 55.0 °F - 35.1 °F 47% 30.03 in 10.0 mi Calm Calm - N/A   Clear